Location: Unspecified
(0.0000°N, 0.0000°E)
Time: 13:42:57
(UTC+00:00)

Vanguard 3 - Pass Details

Date: 24 November 2019
Orbit: 508 x 3263 km, 33.3° (Epoch: 08 December)

Event Time Altitude Azimuth Distance (km) Brightness Sun altitude
Rises 21:55:34 0° 290° (WNW) 5,245 11.5 -55.9°
Reaches altitude 10° 22:00:09 10° 281° (W) 3,738 10.7 -56.8°
Enters shadow 22:00:33 11° 280° (W) 3,612 10.6 -56.8°
Maximum altitude 22:07:44 31° 223° (SW) 1,755 - -58.2°
Drops below altitude 10° 22:12:34 10° 161° (SSE) 2,331 - -59.1°
Sets 22:14:48 0° 149° (SSE) 3,038 - -59.5°
